EW0920 Weather Reports


Display with metric or nautical units.
time (UTC)temp
F
wind
direction
speed
MPH
gust
MPH
rain 1hr
in
rain 24hr
in
rain mn
in
humidity
%
barometer
mb
20260502170120 53 254 2.0 3.0 0.00 0.01 0.01 46 1019.0
20260502164107 54 3 1.0 3.0 0.00 0.01 0.01 53 1019.0
20260502163603 56 196 1.0 2.0 0.00 0.01 0.01 47 1019.0
20260502163100 55 325 2.0 2.0 0.00 0.01 0.01 44 1019.0
20260502162556 55 63 0.0 1.0 0.00 0.01 0.01 46 1019.2
20260502162054 55 302 1.0 3.0 0.00 0.01 0.01 46 1019.3
20260502161550 53 33 1.0 1.0 0.00 0.01 0.01 45 1019.2
20260502161048 54 15 3.0 4.0 0.00 0.01 0.01 47 1019.4
20260502160546 55 155 3.0 6.0 0.00 0.01 0.01 48 1019.4
20260502151959 52 28 1.0 3.0 0.00 0.01 0.01 50 1019.4
20260502151455 51 346 0.0 2.0 0.00 0.01 0.01 55 1019.4
20260502150953 51 262 1.0 2.0 0.00 0.01 0.01 52 1019.4
20260502150450 50 34 0.0 1.0 0.00 0.01 0.01 55 1019.5
20260502130335 41 297 0.0 1.0 0.00 0.01 0.01 96 1019.5
20260502123318 36 15 0.0 0.0 0.00 0.01 0.01 99 1019.7
20260502122815 35 15 0.0 0.0 0.00 0.01 0.01 99 1019.5
20260502122310 35 15 0.0 1.0 0.00 0.01 0.01 99 1019.4
20260502121809 34 9 0.0 0.0 0.00 0.01 0.01 99 1019.4
20260502121306 34 9 0.0 0.0 0.00 0.01 0.01 99 1019.5
20260502120803 33 9 0.0 0.0 0.00 0.01 0.01 99 1019.3
20260502120300 33 11 0.0 0.0 0.00 0.01 0.01 99 1019.2
20260502115757 33 357 0.0 0.0 0.00 0.01 0.01 99 1019.2
20260502115254 33 357 0.0 0.0 0.00 0.01 0.01 99 1019.3
20260502114750 33 357 0.0 0.0 0.00 0.01 0.01 99 1019.4
20260502114247 33 357 0.0 0.0 0.00 0.01 0.01 99 1019.4
20260502113744 32 357 0.0 0.0 0.00 0.01 0.01 99 1019.4
20260502113242 32 357 0.0 0.0 0.00 0.01 0.01 99 1019.3
20260502112740 32 357 0.0 0.0 0.00 0.01 0.01 99 1019.3
20260502112237 32 357 0.0 0.0 0.00 0.01 0.01 99 1019.3
20260502111734 32 357 0.0 0.0 0.00 0.01 0.01 99 1019.3
20260502111232 32 357 0.0 0.0 0.00 0.01 0.01 99 1019.2
20260502110729 31 357 0.0 0.0 0.00 0.01 0.01 99 1019.3
20260502110227 31 357 0.0 0.0 0.00 0.01 0.01 99 1019.2
20260502105725 31 353 0.0 0.0 0.00 0.01 0.01 99 1019.3
20260502105220 31 353 0.0 0.0 0.00 0.01 0.01 99 1019.3
20260502104718 31 353 0.0 0.0 0.00 0.01 0.01 99 1019.4
20260502104216 31 353 0.0 0.0 0.00 0.01 0.01 99 1019.2
20260502103713 31 353 0.0 0.0 0.00 0.01 0.01 99 1019.3
20260502103211 31 353 0.0 0.0 0.00 0.01 0.01 99 1019.2
20260502102707 31 353 0.0 0.0 0.00 0.01 0.01 99 1019.4
20260502102204 31 353 0.0 0.0 0.00 0.01 0.01 99 1019.5
20260502101702 31 353 0.0 0.0 0.00 0.01 0.01 99 1019.6
20260502101200 31 353 0.0 0.0 0.00 0.01 0.01 99 1019.4
20260502100658 31 353 0.0 0.0 0.00 0.01 0.01 99 1019.4
20260502100156 32 353 0.0 0.0 0.00 0.01 0.01 99 1019.2
20260502091130 33 350 0.0 0.0 0.00 0.01 0.01 99 1019.3
20260502090627 33 350 0.0 0.0 0.00 0.01 0.01 99 1019.5
20260502090125 33 350 0.0 0.0 0.00 0.01 0.01 99 1019.7
20260502071521 35 1 0.0 0.0 0.00 0.01 0.01 99 1018.7
20260502071020 35 1 0.0 0.0 0.00 0.01 0.01 99 1018.7
20260502070517 35 1 0.0 0.0 0.00 0.01 0.01 99 1018.8
20260502070015 35 1 0.0 0.0 0.00 0.01 0.01 99 1018.9
20260502065514 35 1 0.0 0.0 0.00 0.01 0.01 99 1019.3
20260502065011 36 1 0.0 0.0 0.00 0.01 0.01 99 1019.1
20260502064509 36 1 0.0 0.0 0.00 0.01 0.01 99 1019.1
20260502064006 36 1 0.0 0.0 0.00 0.01 0.01 99 1019.4
20260502063504 36 1 0.0 0.0 0.00 0.01 0.01 99 1019.4
20260502063001 36 1 0.0 0.0 0.00 0.01 0.01 99 1019.3
20260502062458 36 1 0.0 0.0 0.00 0.01 0.01 99 1019.4
20260502061957 37 1 0.0 0.0 0.00 0.01 0.01 99 1019.2
20260502061454 37 1 0.0 0.0 0.00 0.01 0.01 99 1019.3
20260502060950 37 1 0.0 0.0 0.00 0.01 0.01 99 1019.4
20260502060446 37 1 0.0 0.0 0.00 0.01 0.01 99 1019.3
20260502055943 37 1 0.0 0.0 0.00 0.01 0.01 99 1019.5
20260502055440 38 1 0.0 0.0 0.00 0.01 0.01 99 1019.4
20260502054935 38 1 0.0 0.0 0.00 0.01 0.01 99 1019.6
20260502054432 38 1 0.0 0.0 0.00 0.01 0.01 99 1019.6
20260502053929 38 1 0.0 0.0 0.00 0.01 0.01 99 1019.5
20260502053426 39 1 0.0 0.0 0.00 0.01 0.01 99 1019.5
20260502052924 39 1 0.0 0.0 0.00 0.01 0.01 99 1019.6
20260502052422 39 359 0.0 0.0 0.00 0.01 0.01 98 1019.7
20260502051920 39 359 0.0 0.0 0.00 0.01 0.01 98 1019.5
20260502051418 40 359 0.0 0.0 0.00 0.01 0.01 98 1019.5
20260502050914 40 359 0.0 0.0 0.00 0.01 0.01 98 1019.6
20260502050411 40 359 0.0 0.0 0.00 0.01 0.01 98 1019.6
20260502045908 40 356 0.0 0.0 0.00 0.01 0.01 98 1019.4
20260502045405 41 356 0.0 0.0 0.00 0.01 0.01 99 1019.5
20260502044902 41 356 0.0 0.0 0.00 0.01 0.01 99 1019.8
20260502044357 41 355 0.0 0.0 0.05 0.01 0.01 99 1019.7
20260502043855 40 24 0.0 1.0 0.05 0.01 0.01 99 1019.8
20260502043352 40 355 0.0 0.0 0.00 0.00 0.00 99 1020.0
20260502042852 40 357 0.0 0.0 0.00 0.00 0.00 99 1020.0
20260502042349 40 357 0.0 0.0 0.00 0.00 0.00 99 1019.8
20260502041846 39 8 0.0 1.0 0.00 0.00 0.00 98 1019.9
20260502041344 39 356 0.0 0.0 0.00 0.00 0.00 98 1019.6
20260502040841 39 359 0.0 0.0 0.00 0.00 0.00 98 1019.5
20260502040338 39 359 0.0 0.0 0.00 0.00 0.00 98 1019.6
20260502035834 39 359 0.0 0.0 0.00 0.04 0.04 98 1019.6
20260502035331 38 359 0.0 0.0 0.00 0.04 0.04 98 1019.4
20260502034828 38 351 0.0 0.0 0.00 0.04 0.04 98 1019.6
20260502034327 38 351 0.0 0.0 0.00 0.04 0.04 98 1019.5
20260502033825 38 351 0.0 0.0 0.00 0.04 0.04 98 1019.6
20260502033322 38 351 0.0 0.0 0.00 0.04 0.04 98 1019.5
20260502032818 38 345 0.0 0.0 0.00 0.04 0.04 98 1019.8
20260502032315 38 357 0.0 0.0 0.00 0.04 0.04 98 1019.6
20260502031812 38 5 0.0 0.0 0.00 0.04 0.04 97 1019.7
20260502031310 38 5 0.0 0.0 0.00 0.04 0.04 97 1019.7
20260502030809 38 5 0.0 0.0 0.00 0.04 0.04 97 1019.7
20260502030307 38 5 0.0 0.0 0.00 0.04 0.04 97 1019.8
20260502025803 38 5 0.0 0.0 0.00 0.04 0.04 97 1019.8
20260502025301 38 357 0.0 0.0 0.00 0.04 0.04 97 1019.7
20260502024759 38 356 0.0 0.0 0.00 0.04 0.04 97 1019.7
20260502024256 39 356 0.0 0.0 0.00 0.04 0.04 96 1019.8
20260502023754 39 357 0.0 0.0 0.00 0.04 0.04 96 1019.6
20260502023252 39 357 0.0 0.0 0.00 0.04 0.04 96 1019.5
20260502022749 39 357 0.0 0.0 0.00 0.04 0.04 95 1019.3
20260502022245 39 357 0.0 0.0 0.00 0.04 0.04 95 1019.2
20260502021742 39 355 0.0 0.0 0.00 0.04 0.04 95 1019.3
20260502021240 40 355 0.0 0.0 0.00 0.04 0.04 95 1018.9
20260502020737 40 355 0.0 0.0 0.00 0.04 0.04 94 1018.7
20260502020234 40 353 0.0 0.0 0.00 0.04 0.04 94 1018.7
20260502015732 40 353 0.0 0.0 0.00 0.04 0.04 94 1018.9
20260502015228 40 353 0.0 0.0 0.00 0.04 0.04 93 1018.8
20260502014726 41 353 0.0 0.0 0.00 0.04 0.04 93 1018.7
20260502014222 41 353 0.0 0.0 0.00 0.04 0.04 93 1018.7
20260502013719 41 353 0.0 0.0 0.00 0.04 0.04 93 1018.9
20260502013213 41 353 0.0 0.0 0.00 0.04 0.04 92 1018.9
20260502012711 42 353 0.0 0.0 0.00 0.04 0.04 91 1018.8
20260502012209 42 353 0.0 0.0 0.00 0.04 0.04 91 1018.8
20260502011706 42 353 0.0 0.0 0.00 0.04 0.04 90 1018.6
20260502011201 42 353 0.0 0.0 0.00 0.04 0.04 89 1018.5
20260502010700 42 353 0.0 0.0 0.00 0.04 0.04 88 1018.0
20260502010155 43 353 0.0 0.0 0.00 0.04 0.04 86 1018.2
20260502005653 43 353 0.0 0.0 0.00 0.04 0.04 85 1018.0
20260502005150 44 353 0.0 0.0 0.00 0.04 0.04 85 1018.0
20260502004646 44 353 0.0 0.0 0.00 0.04 0.04 83 1017.8
20260502004143 45 353 0.0 0.0 0.00 0.04 0.04 82 1017.6
20260502003641 45 3 0.0 0.0 0.00 0.04 0.04 80 1017.7
20260502003138 46 3 0.0 0.0 0.00 0.04 0.04 79 1017.6
20260502002633 46 3 0.0 0.0 0.00 0.04 0.04 79 1017.6
20260502002131 47 9 0.0 0.0 0.00 0.04 0.04 79 1017.4
20260502001629 47 9 0.0 0.0 0.00 0.04 0.04 80 1017.6
20260502001126 48 2 0.0 0.0 0.00 0.04 0.04 79 1017.5
20260502000624 48 2 0.0 0.0 0.00 0.04 0.04 77 1017.5
20260502000121 48 11 0.0 0.0 0.00 0.04 0.04 74 1017.2
20260501235617 48 338 2.0 4.0 0.00 0.04 0.04 68 1017.3
20260501235113 49 11 0.0 0.0 0.00 0.04 0.04 70 1017.2
20260501234609 49 4 0.0 1.0 0.00 0.04 0.04 71 1017.1
20260501234106 49 352 0.0 0.0 0.00 0.04 0.04 72 1016.7
20260501233605 50 131 1.0 4.0 0.00 0.04 0.04 68 1016.8
20260501233102 50 6 0.0 0.0 0.00 0.04 0.04 71 1016.7
20260501232557 51 345 0.0 1.0 0.00 0.04 0.04 67 1016.7
20260501232055 51 4 0.0 0.0 0.00 0.04 0.04 69 1016.5
20260501231552 51 73 1.0 1.0 0.00 0.04 0.04 68 1016.6
20260501231051 51 309 0.0 1.0 0.00 0.04 0.04 66 1017.0
20260501230549 51 215 1.0 1.0 0.00 0.04 0.04 66 1016.8
20260501230047 51 341 0.0 2.0 0.00 0.04 0.04 66 1016.6
20260501225544 51 359 0.0 3.0 0.00 0.04 0.04 69 1016.4
20260501225040 52 326 0.0 3.0 0.00 0.04 0.04 70 1016.4
20260501224538 52 337 0.0 1.0 0.00 0.04 0.04 69 1016.5
20260501224034 52 323 1.0 2.0 0.00 0.04 0.04 67 1016.2
20260501223531 53 351 3.0 3.0 0.00 0.04 0.04 65 1016.3
20260501223027 54 312 0.0 6.0 0.00 0.04 0.04 65 1016.2
20260501222524 54 257 1.0 2.0 0.00 0.04 0.04 62 1015.9
20260501222021 54 22 0.0 2.0 0.00 0.04 0.04 63 1016.0
20260501221517 55 17 1.0 7.0 0.00 0.04 0.04 63 1015.7
20260501221015 55 356 1.0 3.0 0.00 0.04 0.04 66 1015.8
20260501220513 54 358 0.0 3.0 0.00 0.04 0.04 67 1015.8
20260501220009 56 8 0.0 4.0 0.00 0.04 0.04 62 1015.9
20260501215505 56 354 0.0 3.0 0.00 0.04 0.04 64 1015.8
20260501215001 55 9 0.0 2.0 0.00 0.04 0.04 62 1015.7
20260501214456 55 323 2.0 4.0 0.00 0.04 0.04 63 1015.7
20260501213952 55 33 2.0 2.0 0.00 0.04 0.04 67 1015.3
20260501213449 55 17 0.0 2.0 0.00 0.04 0.04 65 1015.3
20260501212944 54 41 1.0 9.0 0.00 0.04 0.04 64 1015.3
20260501212442 54 13 0.0 2.0 0.00 0.04 0.04 69 1015.2
20260501211938 55 2 2.0 7.0 0.00 0.04 0.04 66 1015.0
20260501211436 56 202 2.0 3.0 0.00 0.04 0.04 69 1015.2
20260501210933 57 86 0.0 3.0 0.00 0.04 0.04 68 1014.9
20260501210430 55 4 1.0 2.0 0.00 0.04 0.04 73 1015.0
20260501205926 54 19 1.0 3.0 0.00 0.04 0.04 73 1014.7
20260501205423 56 22 2.0 2.0 0.00 0.04 0.04 72 1014.9
20260501204921 57 323 0.0 1.0 0.00 0.04 0.04 75 1014.9
20260501204416 54 327 0.0 2.0 0.00 0.04 0.04 73 1014.9
20260501203913 54 240 0.0 7.0 0.00 0.04 0.04 77 1015.0
20260501203410 54 1 2.0 4.0 0.00 0.04 0.04 77 1014.8
20260501202907 54 308 1.0 2.0 0.00 0.04 0.04 77 1015.1
20260501202404 54 7 2.0 7.0 0.00 0.04 0.04 78 1015.0
20260501201901 53 333 0.0 4.0 0.00 0.04 0.04 81 1014.9
20260501201358 53 355 0.0 0.0 0.00 0.04 0.04 84 1015.0
20260501200854 52 0 0.0 3.0 0.00 0.04 0.04 81 1015.1
20260501200351 52 333 0.0 0.0 0.00 0.04 0.04 83 1014.9
20260501195849 51 1 0.0 2.0 0.00 0.04 0.04 84 1015.0
20260501195344 51 253 1.0 1.0 0.00 0.04 0.04 86 1015.3
20260501194841 50 129 2.0 2.0 0.00 0.04 0.04 87 1015.3
20260501194337 50 20 1.0 1.0 0.00 0.04 0.04 87 1015.3
20260501193833 50 93 0.0 1.0 0.00 0.04 0.04 89 1015.3
20260501193332 50 9 0.0 0.0 0.00 0.04 0.04 90 1015.5
20260501192829 50 21 0.0 0.0 0.00 0.04 0.04 88 1015.3
20260501192326 50 19 0.0 1.0 0.00 0.04 0.04 87 1015.5
20260501191823 50 7 0.0 0.0 0.00 0.04 0.04 89 1015.4
20260501191320 50 348 0.0 1.0 0.00 0.04 0.04 89 1015.3
20260501190817 50 347 0.0 0.0 0.00 0.04 0.04 91 1015.4
20260501190313 50 18 0.0 1.0 0.00 0.04 0.04 90 1015.5
20260501185808 50 13 0.0 1.0 0.07 0.04 0.04 90 1015.5
20260501185306 50 344 1.0 4.0 0.07 0.04 0.04 90 1015.7
20260501184800 50 141 1.0 2.0 0.00 0.03 0.03 90 1015.5
20260501184256 50 13 0.0 0.0 0.00 0.03 0.03 92 1015.1
20260501183752 50 6 1.0 1.0 0.00 0.03 0.03 90 1015.3
20260501183249 51 12 0.0 0.0 0.00 0.03 0.03 89 1015.2
20260501182745 51 14 0.0 1.0 0.05 0.03 0.03 87 1015.1
20260501182243 51 103 1.0 1.0 0.05 0.03 0.03 85 1015.2
20260501181739 52 96 2.0 3.0 0.07 0.02 0.02 84 1014.9
20260501181237 53 356 2.0 2.0 0.07 0.02 0.02 79 1014.9
20260501180735 54 1 0.0 1.0 0.00 0.01 0.01 72 1014.8
20260501180230 54 353 0.0 2.0 0.00 0.01 0.01 74 1014.6
20260501175727 55 27 1.0 2.0 0.00 0.01 0.01 70 1014.5
20260501175224 55 3 2.0 2.0 0.00 0.01 0.01 70 1014.4
20260501174721 55 351 1.0 1.0 0.00 0.01 0.01 72 1014.5
20260501174218 55 11 0.0 0.0 0.00 0.01 0.01 78 1014.4
20260501173716 55 9 0.0 0.0 0.00 0.01 0.01 72 1014.4
20260501173213 54 13 0.0 0.0 0.00 0.01 0.01 78 1014.4
20260501172709 53 356 0.0 1.0 0.00 0.01 0.01 72 1014.6
20260501172203 54 27 0.0 1.0 0.00 0.01 0.01 71 1014.3
20260501171700 54 46 1.0 1.0 0.00 0.01 0.01 72 1014.5
20260501171157 54 278 0.0 1.0 0.00 0.01 0.01 69 1014.6